Regional Weather Roundup
Issued by NWS

Home | Current Version | Previous Version | Text Only | Print | Product List | Glossary Off
Versions: 1 2 3 4 5 6 7 8 9 10 11 12 13 14 15 16 17 18 19 20 21 22 23 24 25 26 27 28 29 30 31 32 33 34 35 36 37 38 39 40 41 42 43 44 45 46 47 48 49 50

000
ASUS43 KLMK 270110
RWRKY
KENTUCKY REGIONAL WEATHER ROUNDUP
NATIONAL WEATHER SERVICE LOUISVILLE KY
900 PM EDT THU MAY 26 2016

NOTE "FAIR" INDICATES FEW OR NO CLOUDS BELOW 12,000 FEET
WITH NO SIGNIFICANT WEATHER AND/OR OBSTRUCTIONS TO VISIBILITY.

KYZ001>023-026-027-061>063-070>075-270200-
WESTERN AND SOUTH CENTRAL KENTUCKY

CITY           SKY/WX    TMP DP  RH WIND       PRES   REMARKS
PADUCAH        MOCLDY    69  63  81 SE10      29.95S
HENDERSON      CLOUDY    70  63  78 CALM      29.96R
OWENSBORO      CLOUDY    70  65  84 S8        29.95R
HOPKINSVILLE   CLOUDY    68  68  98 SE16      29.99S
BOWLING GREEN  CLOUDY    68  66  93 S5        30.02F
GLASGOW        CLOUDY    65  65 100 SW5       30.03S
$$

KYZ024-025-028>034-038-045-046-053-270200-
NORTH CENTRAL KENTUCKY

CITY           SKY/WX    TMP DP  RH WIND       PRES   REMARKS
LOUISVILLE/SDF CLOUDY    68  64  87 SE5       29.99S
LOUISVILLE/LOU CLOUDY    68  64  87 S3        30.00S
FORT KNOX      CLOUDY    67  64  90 E6        29.97F
$$

KYZ035>037-039>044-047>052-055>060-089>105-270200-
NORTHEAST KENTUCKY

CITY           SKY/WX    TMP DP  RH WIND       PRES   REMARKS
LEXINGTON      MOCLDY    66  63  90 S6        30.02F
COVINGTON      CLOUDY    68  65  90 S10       29.98S
FRANKFORT      MOCLDY    67  63  87 S5        30.00S
$$

KYZ054-064>069-076>088-106>120-270200-
SOUTHEAST KENTUCKY

CITY           SKY/WX    TMP DP  RH WIND       PRES   REMARKS
JACKSON        PTCLDY    69  62  78 VRB5      30.05F
LONDON         CLOUDY    66  61  84 S7        30.07F
SOMERSET       MOCLDY    63  63 100 S3        30.05F
MIDDLESBORO    PTCLDY    71  61  69 CALM      30.11F
MONTICELLO     NOT AVBL
$$




USA.gov is the U.S. government's official web portal to all federal, state and local government web resources and services.